STARLINK-36749, 67734

Orbit data source: Space-Track

STARLINK-36749, 67734 is a payload satellite owned by SpaceX/Seattle (US) in SSO that was launched on Wed, 11 Feb 2026 UTC via an FALCON 9 launch vehicle from the Air Force Western Test Range (AFWTR). Payload-class satellites include a variety of spacecraft equipped with specific instruments for various scientific and technological missions. These include communications satellites like Starlink; space stations such as the ISS; scientific satellites like the Hubble; Earth observation satellites from companies like Planet Labs, Umbra, and HawkEye 360; GPS; miniature CubeSats for education and research; and military/defense satellites.

Loading next visibility...
Identifier
67734, 2026-026P
Orbit
SSO
Country
Flag of USUS
Related business
Manufacturer
SpaceX/Seattle
Mission
Operational Commercial Communications
Bus & Motor
STARLINK V2MO, Unknown motor
Mass
575 kg wet, ~530 kg dry
Launch date (UTC)
2026-02-11 (3 months ago)
Launch vehicle
FALCON 9
Launch site
Air Force Western Test Range (AFWTR)
Object type
Payload
Rocket body
Debris
Shape & HBR
Box + 2 Pan, 17.7 m
Radar Cross Section
36.964 m²

Expand to show TLE details & history
Last TLE update: 9 hours ago

TLE from 9 hours ago
0 STARLINK-36749
1 67734U 26026P   26130.13423089  .00021887  00000-0  67830-3 0  9998
2 67734  97.2844 183.8868 0000907  96.0084 264.1262 15.33446208 13540
Epoch: 2026-05-10T03:13Z
TLE epoch observation values (Epoch: 2026-05-10T03:13:17.548Z)
Latitude
-0.00006°
Longitude
-92.37798°
Altitude
468.715 km
Speed
7.632 km/s
True Right ascension
12h 15m 32s
True Declination
0° 00' 00"
Sunlit
Object was in full shadow at epoch
Visualization orbit readout
Latitude
Unknown
Longitude
Unknown
Altitude
Unknown
Speed
Unknown
Apparent Right ascension
Unknown
Apparent Declination
Unknown
Sunlit
N/A
Visualization observer readout
Local Sidereal Time
20:35:59
Azimuth
Unknown
Elevation
Unknown
Doppler factor
Unknown
Orbital elements
Apogee altitude
463.103 km
Perigee altitude
461.862 km
Semi-major axis
6,840.619 km
Eccentricity
0.00009
Inclination
97.2844°
RAAN
183.8868°
Arg. of periapsis
96.0084°
True anomaly
264.11586°
Mean anomaly
264.1262°
Eccentric anomaly
264.12103°
Mean motion
3.83619 °/min
Orbital period
93.84 mins
BSTAR
0.0006783
Loading maneuver chart data...
Computing Atmospheric mass density...
Loading historical data...
Loading historical data...
Loading historical data...
Loading historical data...
Loading historical data...
Loading historical data...
Loading historical data...

Documentation

Showing up to 5 results
|